NKS163 KFLL-MDST

Flight info

Callsign NKS163
Flight time N/A
Altitude 35000
Route SNAPR2 SUMAC Y443 RUMFO Y441 JUELE JUELE2P
Aircraft A320/M-SDE3FGHIRWY/LB1

Departure

Time N/A
Airport Fort Lauderdale Hollywood International Airport (KFLL)

Arrival

Time 2026-05-05 02:11
Airport Cibao International Airport (MDST)
Time Latitude Longitude Altitude Speed Heading
2026-05-05 00:49 25.47342 -78.04453 31535 ft 507 kts 109°
2026-05-05 00:49 25.46386 -78.00743 31919 ft 506 kts 109°
2026-05-05 00:49 25.45411 -77.96959 32312 ft 505 kts 109°
2026-05-05 00:49 25.44461 -77.93279 32652 ft 503 kts 110°
2026-05-05 00:50 25.43504 -77.89580 33047 ft 503 kts 110°
2026-05-05 00:50 25.42527 -77.85817 33434 ft 502 kts 110°
2026-05-05 00:50 25.41562 -77.82107 33820 ft 501 kts 110°
2026-05-05 00:50 25.40598 -77.78406 34166 ft 500 kts 111°
2026-05-05 00:51 25.39636 -77.74713 34446 ft 500 kts 110°
2026-05-05 00:51 25.38675 -77.71029 34705 ft 500 kts 111°
2026-05-05 00:51 25.37709 -77.67325 34914 ft 501 kts 111°
2026-05-05 00:52 25.35754 -77.59856 35012 ft 509 kts 111°
2026-05-05 00:52 25.33778 -77.52308 35008 ft 512 kts 111°
2026-05-05 00:53 25.31797 -77.44737 35012 ft 513 kts 111°
2026-05-05 00:53 25.29387 -77.37387 35018 ft 503 kts 124°
2026-05-05 00:54 25.25462 -77.31176 35020 ft 486 kts 141°
2026-05-05 00:54 25.20628 -77.26050 35017 ft 481 kts 145°
2026-05-05 00:55 25.15773 -77.20964 35013 ft 481 kts 145°
2026-05-05 00:55 25.10917 -77.15873 35017 ft 481 kts 145°
2026-05-05 00:56 25.06065 -77.10793 34988 ft 481 kts 145°
2026-05-05 00:56 25.01203 -77.05705 35001 ft 481 kts 146°
2026-05-05 00:57 24.96339 -77.00638 35012 ft 481 kts 146°
2026-05-05 00:57 24.91485 -76.95577 35018 ft 481 kts 146°
2026-05-05 00:58 24.86612 -76.90510 35021 ft 481 kts 146°
2026-05-05 00:58 24.81756 -76.85472 35019 ft 481 kts 146°
2026-05-05 00:59 24.76886 -76.80411 35021 ft 481 kts 146°
2026-05-05 00:59 24.72033 -76.75372 34994 ft 480 kts 146°
2026-05-05 01:00 24.67169 -76.70333 35012 ft 480 kts 146°
2026-05-05 01:00 24.62305 -76.65305 35021 ft 480 kts 146°
2026-05-05 01:01 24.57442 -76.60283 35023 ft 479 kts 146°
2026-05-05 01:01 24.52582 -76.55271 35024 ft 479 kts 146°
2026-05-05 01:02 24.47722 -76.50253 35026 ft 479 kts 145°
2026-05-05 01:02 24.42861 -76.45244 35026 ft 479 kts 146°
2026-05-05 01:03 24.37995 -76.40247 34993 ft 479 kts 145°
2026-05-05 01:03 24.33146 -76.35264 35014 ft 478 kts 144°
2026-05-05 01:04 24.28305 -76.30281 35016 ft 477 kts 144°
2026-05-05 01:04 24.21030 -76.22827 35021 ft 477 kts 145°
2026-05-05 01:05 24.16193 -76.17874 35034 ft 477 kts 145°
2026-05-05 01:05 24.11357 -76.12924 35029 ft 476 kts 144°
2026-05-05 01:06 24.06505 -76.07967 35032 ft 476 kts 145°
2026-05-05 01:06 24.01665 -76.03032 35030 ft 476 kts 145°
2026-05-05 01:07 23.96820 -75.98095 35034 ft 476 kts 145°
2026-05-05 01:07 23.91987 -75.93163 35031 ft 476 kts 145°
2026-05-05 01:08 23.87129 -75.88220 35037 ft 476 kts 145°
2026-05-05 01:08 23.82284 -75.83304 35033 ft 476 kts 145°
2026-05-05 01:09 23.77444 -75.78388 35024 ft 476 kts 145°
2026-05-05 01:09 23.72586 -75.73457 35021 ft 476 kts 145°
2026-05-05 01:10 23.67733 -75.68547 35014 ft 476 kts 144°
2026-05-05 01:10 23.62867 -75.63635 35031 ft 477 kts 144°
2026-05-05 01:11 23.58001 -75.58715 35033 ft 477 kts 144°
2026-05-05 01:11 23.53142 -75.53797 35036 ft 477 kts 144°
2026-05-05 01:12 23.48271 -75.48876 35040 ft 477 kts 144°
2026-05-05 01:12 23.43397 -75.43963 35039 ft 477 kts 145°
2026-05-05 01:13 23.38529 -75.39078 35029 ft 477 kts 144°
2026-05-05 01:13 23.33653 -75.34192 35018 ft 477 kts 144°
2026-05-05 01:14 23.28783 -75.29291 35042 ft 476 kts 144°
2026-05-05 01:14 23.23931 -75.24401 35044 ft 476 kts 144°
2026-05-05 01:15 23.19070 -75.19529 35048 ft 475 kts 144°
2026-05-05 01:15 23.14196 -75.14660 35047 ft 475 kts 144°
2026-05-05 01:16 23.09383 -75.09740 35045 ft 479 kts 139°
2026-05-05 01:16 23.05356 -75.03886 35025 ft 486 kts 130°
2026-05-05 01:17 23.01469 -74.97865 34992 ft 487 kts 131°
2026-05-05 01:17 22.97552 -74.91851 35005 ft 489 kts 131°
2026-05-05 01:18 22.93612 -74.85803 35018 ft 491 kts 131°
2026-05-05 01:18 22.89680 -74.79765 35027 ft 491 kts 131°
2026-05-05 01:19 22.85730 -74.73700 35037 ft 492 kts 131°
2026-05-05 01:19 22.81782 -74.67636 35041 ft 492 kts 131°
2026-05-05 01:20 22.77835 -74.61598 35048 ft 492 kts 131°
2026-05-05 01:20 22.73875 -74.55560 35050 ft 492 kts 131°
2026-05-05 01:21 22.69918 -74.49514 35050 ft 492 kts 131°
2026-05-05 01:21 22.65972 -74.43471 35050 ft 492 kts 131°
2026-05-05 01:22 22.62679 -74.38440 35031 ft 492 kts 131°
2026-05-05 01:22 22.58695 -74.32381 35027 ft 492 kts 131°
2026-05-05 01:23 22.54710 -74.26323 35033 ft 492 kts 131°
2026-05-05 01:23 22.50768 -74.20334 35037 ft 492 kts 131°
2026-05-05 01:24 22.46797 -74.14307 35041 ft 492 kts 131°
2026-05-05 01:24 22.42822 -74.08282 35046 ft 493 kts 131°
2026-05-05 01:25 22.38813 -74.02208 35047 ft 493 kts 131°
2026-05-05 01:25 22.34854 -73.96228 35046 ft 493 kts 131°
2026-05-05 01:26 22.30871 -73.90218 35051 ft 492 kts 131°
2026-05-05 01:26 22.26863 -73.84164 35034 ft 492 kts 131°
2026-05-05 01:27 22.22886 -73.78157 35043 ft 492 kts 131°
2026-05-05 01:27 22.18903 -73.72159 35048 ft 492 kts 131°
2026-05-05 01:28 22.14922 -73.66168 35067 ft 491 kts 131°
2026-05-05 01:28 22.10943 -73.60199 35044 ft 491 kts 131°
2026-05-05 01:29 22.06950 -73.54215 35046 ft 491 kts 131°
2026-05-05 01:29 22.02963 -73.48247 35060 ft 491 kts 131°
2026-05-05 01:30 21.98967 -73.42270 35047 ft 491 kts 131°
2026-05-05 01:30 21.94975 -73.36285 35054 ft 491 kts 131°
2026-05-05 01:31 21.90986 -73.30322 35031 ft 491 kts 131°
2026-05-05 01:31 21.86989 -73.24359 35037 ft 491 kts 131°
2026-05-05 01:32 21.82979 -73.18374 35042 ft 491 kts 131°
2026-05-05 01:32 21.78976 -73.12416 35046 ft 491 kts 131°
2026-05-05 01:33 21.74968 -73.06459 35046 ft 491 kts 131°
2026-05-05 01:33 21.70958 -73.00505 35052 ft 491 kts 131°
2026-05-05 01:34 21.66947 -72.94559 35039 ft 491 kts 131°
2026-05-05 01:34 21.62945 -72.88617 35049 ft 491 kts 131°
2026-05-05 01:35 21.58930 -72.82667 35050 ft 491 kts 131°
2026-05-05 01:35 21.54913 -72.76735 35054 ft 491 kts 131°
2026-05-05 01:36 21.50906 -72.70807 35045 ft 491 kts 131°
2026-05-05 01:36 21.46885 -72.64873 35051 ft 491 kts 131°
2026-05-05 01:37 21.42872 -72.58951 35048 ft 491 kts 130°
2026-05-05 01:37 21.38830 -72.53002 35049 ft 490 kts 131°
2026-05-05 01:38 21.34814 -72.47097 35054 ft 490 kts 131°
2026-05-05 01:38 21.30794 -72.41195 35053 ft 490 kts 131°
2026-05-05 01:39 21.26760 -72.35266 35058 ft 490 kts 130°
2026-05-05 01:39 21.24762 -72.32325 34885 ft 490 kts 130°
2026-05-05 01:39 21.22755 -72.29374 34657 ft 489 kts 130°
2026-05-05 01:40 21.20756 -72.26434 34431 ft 487 kts 130°
2026-05-05 01:40 21.18763 -72.23506 34201 ft 485 kts 130°
2026-05-05 01:40 21.16778 -72.20595 33967 ft 482 kts 130°
2026-05-05 01:40 21.14807 -72.17706 33698 ft 480 kts 130°
2026-05-05 01:41 21.12831 -72.14819 33435 ft 478 kts 130°
2026-05-05 01:41 21.10880 -72.11970 33174 ft 475 kts 130°
2026-05-05 01:41 21.08938 -72.09132 32946 ft 472 kts 130°
2026-05-05 01:41 21.06994 -72.06297 32692 ft 470 kts 130°
2026-05-05 01:42 21.05063 -72.03489 32391 ft 466 kts 130°
2026-05-05 01:42 21.03145 -72.00701 31865 ft 464 kts 130°
2026-05-05 01:42 21.01232 -71.97917 31339 ft 462 kts 130°
2026-05-05 01:42 20.99340 -71.95159 30808 ft 461 kts 130°
2026-05-05 01:43 20.97443 -71.92394 30305 ft 459 kts 130°
2026-05-05 01:43 20.95559 -71.89646 29717 ft 457 kts 130°
2026-05-05 01:43 20.93686 -71.86913 29226 ft 453 kts 129°
2026-05-05 01:43 20.91837 -71.84215 28730 ft 449 kts 129°
2026-05-05 01:44 20.89995 -71.81534 28243 ft 445 kts 129°
2026-05-05 01:44 20.88179 -71.78896 27780 ft 441 kts 129°
2026-05-05 01:44 20.86365 -71.76260 27302 ft 437 kts 129°
2026-05-05 01:44 20.84574 -71.73659 26862 ft 433 kts 129°
2026-05-05 01:45 20.82783 -71.71056 26415 ft 430 kts 129°
2026-05-05 01:45 20.81018 -71.68494 25962 ft 427 kts 128°
2026-05-05 01:45 20.79258 -71.65940 25528 ft 425 kts 128°
2026-05-05 01:45 20.77512 -71.63411 25071 ft 423 kts 128°
2026-05-05 01:46 20.75792 -71.60922 24612 ft 422 kts 128°
2026-05-05 01:46 20.74046 -71.58399 24159 ft 420 kts 128°
2026-05-05 01:46 20.72311 -71.55887 23682 ft 420 kts 127°
2026-05-05 01:46 20.70573 -71.53372 23142 ft 419 kts 128°
2026-05-05 01:47 20.68842 -71.50872 22655 ft 417 kts 128°
2026-05-05 01:47 20.67127 -71.48389 22172 ft 414 kts 128°
2026-05-05 01:47 20.65424 -71.45920 21674 ft 412 kts 128°
2026-05-05 01:47 20.63727 -71.43467 21245 ft 408 kts 128°
2026-05-05 01:48 20.62042 -71.41037 20718 ft 407 kts 128°
2026-05-05 01:48 20.60370 -71.38629 20223 ft 405 kts 129°
2026-05-05 01:48 20.58704 -71.36232 19809 ft 401 kts 129°
2026-05-05 01:48 20.57036 -71.33835 19370 ft 398 kts 129°
2026-05-05 01:49 20.55399 -71.31477 18938 ft 394 kts 129°
2026-05-05 01:49 20.53768 -71.29128 18471 ft 393 kts 129°
2026-05-05 01:49 20.52153 -71.26799 17982 ft 391 kts 129°
2026-05-05 01:49 20.50549 -71.24489 17505 ft 387 kts 129°
2026-05-05 01:50 20.48951 -71.22185 17055 ft 384 kts 129°
2026-05-05 01:50 20.47369 -71.19905 16601 ft 380 kts 129°
2026-05-05 01:50 20.45811 -71.17663 15916 ft 373 kts 129°
2026-05-05 01:50 20.44267 -71.15455 15388 ft 369 kts 131°
2026-05-05 01:51 20.42439 -71.13588 15050 ft 358 kts 148°
2026-05-05 01:51 20.40306 -71.12385 14924 ft 336 kts 163°
2026-05-05 01:51 20.38105 -71.11833 14568 ft 319 kts 178°
2026-05-05 01:51 20.35922 -71.11785 14356 ft 310 kts 182°
2026-05-05 01:52 20.33763 -71.11780 14211 ft 311 kts 182°
2026-05-05 01:52 20.31600 -71.11768 13984 ft 310 kts 182°
2026-05-05 01:52 20.29444 -71.11748 13750 ft 309 kts 181°
2026-05-05 01:52 20.27299 -71.11723 13513 ft 308 kts 181°
2026-05-05 01:53 20.25162 -71.11698 13275 ft 307 kts 181°
2026-05-05 01:53 20.23025 -71.11673 13050 ft 306 kts 181°
2026-05-05 01:53 20.20912 -71.11650 12830 ft 305 kts 181°
2026-05-05 01:53 20.18790 -71.11631 12593 ft 303 kts 181°
2026-05-05 01:54 20.16690 -71.11614 12377 ft 302 kts 181°
2026-05-05 01:54 20.14584 -71.11594 12153 ft 301 kts 181°
2026-05-05 01:54 20.12497 -71.11574 11918 ft 300 kts 181°
2026-05-05 01:54 20.10405 -71.11551 11708 ft 299 kts 181°
2026-05-05 01:55 20.08329 -71.11529 11481 ft 298 kts 180°
2026-05-05 01:55 20.06259 -71.11505 11258 ft 297 kts 180°
2026-05-05 01:55 20.04197 -71.11481 11050 ft 296 kts 180°
2026-05-05 01:55 20.02134 -71.11460 10822 ft 295 kts 180°
2026-05-05 01:56 20.00081 -71.11442 10605 ft 295 kts 180°
2026-05-05 01:56 19.98030 -71.11424 10396 ft 292 kts 180°
2026-05-05 01:56 19.96036 -71.11406 10271 ft 283 kts 180°
2026-05-05 01:56 19.94741 -71.11394 10199 ft 277 kts 180°
2026-05-05 01:57 19.92252 -71.11050 10046 ft 267 kts 163°
2026-05-05 01:57 19.91060 -71.10637 9942 ft 263 kts 163°
2026-05-05 01:57 19.89353 -71.10055 9722 ft 260 kts 163°
2026-05-05 01:57 19.87072 -71.09284 9463 ft 256 kts 163°
2026-05-05 01:58 19.85371 -71.08712 9278 ft 255 kts 163°
2026-05-05 01:58 19.84226 -71.08330 9162 ft 255 kts 163°
2026-05-05 01:58 19.82534 -71.07766 8987 ft 254 kts 163°
2026-05-05 01:58 19.80870 -71.07208 8808 ft 254 kts 163°
2026-05-05 01:59 19.79192 -71.06644 8629 ft 253 kts 163°
2026-05-05 01:59 19.77489 -71.06071 8451 ft 253 kts 163°
2026-05-05 01:59 19.75833 -71.05514 8277 ft 252 kts 163°
2026-05-05 01:59 19.74167 -71.04954 8106 ft 252 kts 163°
2026-05-05 02:00 19.72495 -71.04394 7923 ft 251 kts 162°
2026-05-05 02:00 19.70819 -71.03832 7741 ft 249 kts 163°
2026-05-05 02:00 19.69186 -71.03285 7577 ft 249 kts 163°
2026-05-05 02:00 19.67537 -71.02732 7411 ft 249 kts 163°
2026-05-05 02:01 19.65885 -71.02179 7228 ft 248 kts 163°
2026-05-05 02:01 19.64242 -71.01629 7057 ft 248 kts 163°
2026-05-05 02:01 19.62595 -71.01078 6880 ft 248 kts 163°
2026-05-05 02:01 19.60957 -71.00530 6710 ft 247 kts 163°
2026-05-05 02:02 19.59318 -70.99983 6535 ft 246 kts 163°
2026-05-05 02:02 19.57680 -70.99436 6358 ft 246 kts 163°
2026-05-05 02:02 19.56067 -70.98895 6198 ft 243 kts 162°
2026-05-05 02:02 19.54568 -70.98130 6022 ft 238 kts 144°
2026-05-05 02:03 19.53362 -70.96939 5861 ft 237 kts 134°
2026-05-05 02:03 19.52211 -70.95682 5700 ft 237 kts 135°
2026-05-05 02:03 19.51043 -70.94414 5499 ft 237 kts 135°
2026-05-05 02:03 19.49905 -70.93182 5325 ft 237 kts 135°
2026-05-05 02:04 19.48755 -70.91940 5148 ft 236 kts 135°
2026-05-05 02:04 19.47644 -70.90682 4990 ft 231 kts 126°
2026-05-05 02:04 19.46902 -70.89200 4830 ft 224 kts 107°
2026-05-05 02:04 19.46539 -70.87634 4697 ft 217 kts 103°
2026-05-05 02:05 19.46206 -70.86099 4615 ft 206 kts 103°
2026-05-05 02:05 19.45892 -70.84657 4427 ft 198 kts 103°
2026-05-05 02:05 19.45591 -70.83277 4208 ft 188 kts 103°
2026-05-05 02:05 19.45304 -70.81958 3991 ft 180 kts 104°
2026-05-05 02:06 19.45031 -70.80704 3801 ft 167 kts 103°
2026-05-05 02:06 19.44777 -70.79538 3592 ft 159 kts 104°
2026-05-05 02:06 19.44531 -70.78414 3416 ft 157 kts 104°
2026-05-05 02:06 19.44287 -70.77293 3233 ft 156 kts 105°
2026-05-05 02:07 19.44045 -70.76183 3040 ft 154 kts 106°
2026-05-05 02:07 19.43803 -70.75077 2856 ft 153 kts 104°
2026-05-05 02:07 19.43566 -70.73989 2671 ft 151 kts 106°
2026-05-05 02:07 19.43327 -70.72895 2489 ft 151 kts 104°
2026-05-05 02:08 19.43091 -70.71815 2310 ft 151 kts 105°
2026-05-05 02:08 19.42855 -70.70735 2132 ft 151 kts 104°
2026-05-05 02:08 19.42618 -70.69650 1963 ft 150 kts 105°
2026-05-05 02:08 19.42385 -70.68583 1789 ft 148 kts 104°
2026-05-05 02:09 19.42155 -70.67532 1611 ft 146 kts 103°
2026-05-05 02:09 19.41927 -70.66491 1442 ft 144 kts 103°
2026-05-05 02:09 19.41701 -70.65460 1275 ft 144 kts 103°
2026-05-05 02:09 19.41477 -70.64436 1089 ft 141 kts 102°
2026-05-05 02:10 19.41255 -70.63421 923 ft 142 kts 101°
2026-05-05 02:10 19.41035 -70.62416 749 ft 140 kts 101°
2026-05-05 02:10 19.40815 -70.61410 588 ft 138 kts 102°
2026-05-05 02:10 19.40640 -70.60609 578 ft 71 kts 103°
2026-05-05 02:11 19.40581 -70.60351 574 ft 21 kts 103°
2026-05-05 02:11 19.40539 -70.60152 576 ft 33 kts 102°
2026-05-05 02:11 19.40480 -70.59981 569 ft 23 kts 154°
2026-05-05 02:11 19.40350 -70.60008 571 ft 18 kts 190°
2026-05-05 02:12 19.40331 -70.60011 572 ft 0 kts 190°
2026-05-05 02:13 19.40330 -70.60012 575 ft 1 kts 193°
2026-05-05 02:13 19.40329 -70.60012 575 ft 0 kts 196°
2026-05-05 02:14 19.40326 -70.60013 575 ft 3 kts 200°
2026-05-05 02:14 19.40301 -70.60040 573 ft 3 kts 227°
2026-05-05 02:14 19.40284 -70.60062 575 ft 0 kts 230°
2026-05-05 02:14 19.40277 -70.60070 572 ft 4 kts 231°
2026-05-05 02:15 19.40263 -70.60090 575 ft 1 kts 227°
2026-05-05 02:15 19.40261 -70.60094 574 ft 1 kts 235°
2026-05-05 02:15 19.40258 -70.60098 573 ft 1 kts 233°
2026-05-05 02:15 19.40256 -70.60100 572 ft 0 kts 233°